Wind_Speed
8 6 2 1 3 2 2 2 0 3 2 1 1 1 1 4 1 2 6 10 28 32 27 25 28 27 26 27 26 26 27 27 26 25 21 18 17 17 15 13 12 11 11 12 12 13 13 13 14
11 7 2 1 3 3 1 2 6 4 1 2 3 3 1 3 5 9 14 16 30 32 27 24 26 27 26 26 27 26 25 25 25 22 20 19 17 15 13 12 12 12 13 13 14 14 14 15 14
13 4 2 1 2 5 1 1 3 2 3 2 2 3 3 4 4 12 9 24 29 29 26 25 25 26 26 25 25 25 24 23 22 21 19 18 15 14 13 13 13 12 13 14 14 15 16 15 14
5 3 3 4 9 6 3 5 6 0 5 2 2 5 6 7 5 3 19 26 28 27 26 26 24 25 25 24 23 22 22 22 21 19 18 17 16 16 15 14 14 14 12 14 15 16 17 16 16
3 1 3 4 7 6 5 7 5 1 0 3 2 4 4 4 7 15 20 24 27 25 24 26 25 25 23 22 22 21 22 21 20 18 17 17 18 17 15 15 13 12 13 13 16 17 17 15 12
3 1 3 12 7 5 7 9 8 7 6 4 4 6 4 7 12 17 20 21 23 24 23 23 24 25 23 22 21 21 20 20 20 18 18 17 17 17 17 15 13 11 13 14 15 16 15 11 7
4 4 6 3 5 6 7 3 5 4 7 8 6 7 5 8 14 17 19 21 21 22 22 23 22 22 23 22 21 20 20 19 18 18 17 17 17 16 15 13 11 12 12 14 15 14 11 8 6
2 3 5 6 7 4 1 1 2 4 7 4 9 6 6 13 19 18 19 20 20 21 21 21 22 21 20 19 21 21 20 19 17 17 17 17 16 16 13 12 12 11 12 13 13 12 10 8 7
2 5 10 9 9 4 3 2 2 5 8 6 8 2 9 30 25 23 22 20 19 20 21 21 22 22 20 19 19 20 19 18 17 16 16 15 11 11 11 12 13 11 10 12 11 10 9 7 7
8 7 10 5 6 4 1 2 7 4 7 8 7 14 25 28 28 26 25 24 22 23 21 22 23 22 20 18 17 16 16 16 15 15 14 13 12 11 10 10 12 11 10 9 9 8 8 7 6
6 9 7 6 8 1 1 6 4 8 11 13 22 19 21 26 25 24 23 23 23 23 23 22 23 22 21 19 18 16 15 15 15 15 15 13 12 10 10 9 9 9 10 8 7 7 7 7 6
6 10 7 11 5 4 4 5 10 6 2 5 14 22 22 22 21 24 22 22 22 22 21 22 21 22 21 18 18 16 16 15 14 15 15 13 12 11 10 10 10 10 9 8 8 8 8 8 8
14 7 11 14 13 11 8 11 5 11 10 10 19 18 20 19 21 20 19 19 20 22 21 20 21 23 20 17 16 16 15 15 15 14 15 14 13 12 10 10 9 9 9 9 9 9 10 10 10
9 20 14 6 11 8 9 8 4 1 9 13 19 19 19 18 19 17 18 19 20 19 19 19 24 23 20 18 16 15 15 13 15 14 14 16 14 13 12 11 11 10 10 9 10 10 10 11 11
9 4 13 15 13 8 12 7 6 6 12 17 15 15 15 14 15 16 17 18 19 19 19 18 21 20 20 18 17 15 14 13 12 14 14 16 16 16 13 12 12 11 11 11 11 12 14 15 14
6 5 9 4 14 5 12 12 4 8 13 15 15 14 13 8 10 10 12 13 15 17 20 18 18 20 21 18 18 15 15 14 12 12 12 15 15 16 16 14 13 11 11 10 10 11 12 13 13
2 4 7 2 8 7 9 8 7 10 12 14 14 13 11 10 8 5 5 12 15 18 18 20 20 20 21 18 15 14 13 14 12 12 13 15 16 15 16 15 13 14 14 13 13 13 13 14 14
7 6 3 3 6 8 10 8 10 10 13 12 12 12 10 9 7 6 5 6 11 15 18 20 19 18 18 15 13 13 12 12 12 12 10 14 16 17 18 17 16 14 13 14 15 17 13 12 10
5 5 3 2 5 6 11 11 8 7 12 13 12 11 10 9 7 7 6 5 6 11 14 17 18 17 17 16 14 12 14 12 10 13 12 12 15 15 17 17 13 11 11 13 13 12 7 3 4
5 6 7 4 2 5 8 10 6 6 7 10 12 12 11 8 7 7 7 7 7 9 10 12 16 17 18 16 15 9 11 11 9 9 11 18 16 11 10 13 17 13 13 16 15 10 4 1 3
10 11 5 3 8 6 14 6 8 4 7 8 8 8 8 11 9 5 6 7 7 7 8 12 15 18 19 18 14 12 10 11 12 11 11 10 9 7 8 7 10 17 23 19 15 19 24 18 14
11 11 5 13 8 5 4 9 8 8 9 11 12 12 12 11 7 6 6 6 7 7 7 10 14 15 15 17 17 16 14 9 9 12 12 10 8 8 9 7 9 10 9 10 14 16 16 16 18
5 8 8 10 5 12 5 4 7 6 11 15 16 16 15 12 10 9 8 6 6 8 9 10 13 13 13 15 18 19 16 15 13 14 11 8 7 6 5 6 6 6 5 7 9 10 12 15 15
12 8 6 3 4 5 3 3 4 10 19 17 15 17 17 13 10 8 7 7 6 7 8 10 13 14 13 15 16 16 17 18 16 13 11 8 6 5 4 2 3 3 4 6 6 7 8 11 15
5 8 5 6 5 1 1 4 2 14 12 15 19 18 16 14 12 9 8 10 9 8 8 9 11 13 13 14 14 14 15 15 13 11 9 9 7 6 5 3 2 1 1 2 4 5 6 7 6
5 4 4 6 4 3 1 4 2 2 2 3 7 15 16 16 13 12 13 12 11 10 9 9 10 13 13 14 16 16 15 14 13 11 10 10 9 8 7 6 5 4 3 3 3 3 4 5 6
6 3 2 7 2 3 2 2 5 4 4 2 8 12 17 16 15 13 14 13 12 12 12 12 11 12 12 15 16 16 15 14 13 12 10 10 9 8 7 7 6 6 6 6 5 5 6 6 6
4 10 4 2 6 5 2 2 3 3 5 5 8 13 14 15 16 14 17 18 17 14 13 12 12 13 13 14 14 14 14 14 13 12 11 10 9 8 7 6 6 6 7 7 6 6 6 6 6
5 3 4 4 3 5 4 3 5 6 8 8 3 7 11 16 16 15 19 20 19 16 16 15 15 15 15 14 14 15 14 14 13 13 12 11 11 9 7 6 5 6 6 6 7 6 7 7 7
2 3 7 7 7 1 1 3 5 7 9 9 7 2 8 13 15 14 16 16 16 17 16 16 15 15 14 13 14 14 14 13 13 12 11 10 9 7 6 4 4 4 5 5 5 5 6 6 6
Wind_Direction
183 155 116 325 260 296 251 189 147 171 231 288 287 252 214 25 6 14 130 151 155 157 158 158 160 160 157 156 154 153 156 157 155 153 150 149 149 147 145 140 138 133 130 132 129 123 120 115 112
162 139 67 107 251 254 231 200 214 158 135 85 254 147 123 69 53 110 136 149 156 156 158 159 160 161 159 156 156 156 154 154 153 154 152 150 152 150 145 143 135 127 125 122 122 121 121 119 120
142 117 198 235 208 230 175 354 312 129 139 52 101 58 47 36 53 144 139 149 154 157 159 162 160 162 159 158 156 157 157 158 155 153 152 153 156 153 146 141 133 127 126 124 125 125 126 125 122
153 135 97 230 230 252 211 103 39 192 197 207 96 62 92 46 130 153 146 151 154 159 160 162 163 166 160 157 157 158 158 156 156 154 154 155 151 147 144 140 136 137 133 128 130 130 128 128 118
72 130 165 226 241 267 249 253 260 268 21 121 135 119 78 47 94 131 143 154 157 158 161 163 169 169 163 158 156 158 159 159 158 156 155 153 150 148 143 137 135 136 137 134 136 135 133 132 124
128 185 191 222 223 252 272 253 241 221 223 129 150 141 101 129 126 142 144 155 160 158 162 164 173 172 167 162 160 159 158 159 158 155 155 154 151 151 147 143 141 136 140 140 142 140 138 139 135
181 188 215 216 246 254 259 259 229 245 255 240 138 169 107 153 142 149 146 152 159 161 164 167 168 170 171 166 164 163 161 161 158 156 156 155 156 156 152 150 151 145 145 146 148 150 159 163 168
153 220 181 216 213 227 163 260 274 272 291 137 168 193 170 161 145 146 147 152 157 163 170 168 171 170 167 167 168 167 165 165 163 162 162 161 163 164 163 161 160 154 154 159 164 169 178 187 194
165 224 225 210 182 187 144 325 135 289 254 185 169 125 118 141 138 147 149 156 160 168 173 176 173 176 172 170 171 171 170 171 170 168 170 168 166 172 176 173 170 164 167 167 182 188 195 210 224
205 226 215 207 196 177 133 244 331 262 189 172 115 94 129 141 148 156 162 166 171 175 176 177 179 178 175 171 170 168 171 172 173 171 172 174 177 178 177 178 179 178 178 182 191 207 213 221 230
194 231 202 210 216 256 251 299 316 304 198 192 171 147 149 148 157 167 175 173 176 177 179 181 180 179 178 177 174 174 176 180 180 178 178 181 180 184 184 186 186 187 193 192 209 224 228 239 243
226 228 228 229 212 265 274 316 314 266 213 267 166 159 153 157 167 174 177 175 177 181 185 184 182 182 183 183 179 180 180 183 185 186 186 185 185 191 192 193 195 194 202 206 214 227 234 238 243
230 238 229 236 254 262 283 276 272 265 280 146 145 164 157 164 171 173 177 177 177 182 187 189 187 186 188 185 185 186 187 189 191 192 194 193 195 197 201 205 205 208 210 219 225 234 244 250 248
211 226 238 250 241 239 238 259 204 220 154 140 153 166 166 166 167 166 178 181 183 184 187 189 194 193 189 191 191 194 196 199 200 202 202 204 206 207 211 218 221 224 224 228 234 238 244 248 250
245 240 237 245 233 228 215 239 223 153 163 145 156 167 156 160 168 182 185 188 187 190 189 193 193 196 193 196 199 200 207 210 209 213 215 215 218 222 221 226 232 236 237 239 245 251 252 253 251
200 210 235 189 194 207 195 200 149 164 158 155 158 155 145 151 174 191 194 194 189 190 195 194 194 200 199 200 204 209 211 215 219 223 228 229 233 233 236 240 241 242 247 256 260 256 260 260 251
182 198 212 165 186 159 210 182 157 161 171 160 160 144 142 124 98 86 161 199 200 199 195 197 199 204 202 205 209 214 216 218 225 232 239 244 244 247 248 251 254 253 256 261 265 269 262 262 266
178 198 190 182 148 170 184 127 150 167 170 162 155 145 144 124 93 92 122 165 193 198 204 205 200 205 201 199 205 217 221 225 230 235 245 258 259 254 253 255 258 262 260 264 265 266 268 265 277
159 163 185 168 181 177 191 139 153 168 170 165 161 149 137 126 113 109 105 118 163 189 203 202 202 203 197 196 198 216 221 222 227 237 248 272 278 265 256 258 263 262 272 273 269 264 261 283 297
204 239 242 97 4 200 164 133 123 157 181 182 164 156 155 144 150 124 107 104 120 166 183 189 199 202 199 196 196 206 215 233 236 243 247 264 267 261 260 257 255 264 291 288 275 249 257 215 322
221 228 218 193 117 76 145 145 171 124 127 154 176 165 158 172 165 152 119 109 115 123 159 173 186 194 195 198 192 197 203 222 223 224 230 212 221 240 264 276 271 260 254 261 246 240 226 220 217
220 215 197 151 172 164 232 187 210 182 173 193 194 192 178 182 170 170 147 127 117 116 129 165 177 179 188 194 194 201 213 187 197 190 196 206 224 244 254 250 254 259 261 247 236 235 242 233 225
223 145 169 167 172 143 155 217 135 181 203 203 200 196 192 187 179 176 167 153 141 131 129 133 148 161 163 174 188 189 185 192 175 174 187 202 204 207 205 211 211 204 218 242 254 255 259 262 253
142 108 76 98 173 165 112 273 181 192 209 207 201 198 191 183 178 171 162 163 157 141 140 134 137 140 155 162 165 176 178 170 171 172 170 168 163 152 155 166 209 247 256 264 264 262 267 270 271
142 160 162 190 201 190 33 222 68 208 207 213 208 196 188 179 174 173 174 177 173 170 160 145 139 130 136 142 146 152 157 159 163 162 157 155 149 132 129 133 116 91 329 284 288 285 282 279 284
146 200 220 218 207 128 107 188 133 158 142 213 226 202 184 181 174 176 181 184 181 175 164 157 148 134 134 131 130 131 137 138 138 140 141 136 125 114 106 97 88 73 49 29 16 18 355 328 309
150 181 21 103 69 213 134 229 249 250 247 252 212 195 198 181 175 177 185 190 191 187 180 168 156 148 144 140 135 136 137 137 139 138 132 128 124 115 105 95 78 61 47 41 39 41 25 13 356
189 142 157 112 164 216 147 264 172 198 211 188 194 207 198 185 178 181 188 195 197 192 187 174 167 164 156 150 144 143 145 144 141 139 141 135 127 119 108 92 73 54 38 27 22 24 18 13 3
144 158 77 94 328 210 192 192 3 330 338 308 279 216 198 194 189 189 194 195 194 191 188 181 176 173 171 164 158 152 151 150 147 147 143 142 138 133 125 107 86 69 58 49 45 38 23 11 2
61 163 165 209 190 81 301 172 18 3 357 340 328 237 209 205 198 196 202 198 194 196 190 189 186 187 182 176 169 161 156 155 152 150 149 147 143 138 130 111 99 91 73 65 54 42 28 12 350
Height
786 787 787 787 798 798 803 796 786 791 788 779 775 779 780 778 784 800 795 797 800 807 813 817 820 822 824 827 829 830 832 835 837 839 841 843 845 847 848 850 852 853 854 855 856 859 860 862 862
785 788 789 789 802 810 798 787 788 782 781 776 776 775 778 787 787 793 797 799 802 808 814 819 821 824 826 828 830 833 835 837 838 841 842 845 847 849 851 852 854 855 855 857 858 859 862 863 864
787 788 787 793 803 800 797 786 783 780 775 777 777 772 778 791 792 795 796 799 805 810 815 820 822 825 827 829 831 833 836 839 841 842 844 846 849 850 852 854 855 858 858 858 860 861 863 865 865
788 789 795 801 798 792 789 783 779 778 775 774 775 782 784 792 793 795 797 801 807 812 816 820 824 826 828 831 833 835 837 839 843 845 846 848 850 852 854 856 857 858 860 860 861 863 865 867 867
787 789 800 803 799 791 783 781 778 780 777 776 773 784 788 795 795 796 801 805 808 814 818 821 824 827 830 832 834 837 838 840 843 845 848 850 851 854 856 858 860 860 861 863 863 865 867 869 870
788 790 801 798 795 789 778 772 777 778 775 776 778 779 788 796 796 800 802 808 812 815 820 822 826 828 830 833 836 838 841 842 844 847 850 852 854 856 858 860 861 862 863 864 866 867 869 871 872
785 790 792 796 792 791 776 769 773 772 773 774 769 781 789 794 796 800 803 808 813 817 821 824 827 830 832 834 837 839 842 845 847 849 851 854 855 859 861 861 863 863 864 867 868 869 871 871 872
785 786 798 792 790 786 773 771 767 767 767 763 765 779 783 787 795 802 805 810 814 818 822 825 829 831 834 837 838 840 843 846 848 851 853 855 857 860 862 863 864 866 866 868 869 870 872 872 873
786 791 788 785 790 778 771 773 767 761 764 763 764 768 772 783 793 802 807 812 816 819 822 826 828 831 834 837 839 841 844 847 849 852 855 857 860 862 863 864 865 867 868 868 871 871 872 873 874
782 786 782 775 772 772 772 774 770 769 767 768 772 777 780 785 791 798 804 808 813 817 820 824 828 831 834 837 840 843 845 848 851 853 855 858 859 861 864 865 866 868 869 870 871 872 873 873 875
780 778 777 774 771 772 773 771 768 768 771 764 763 776 781 785 792 798 803 807 811 816 820 823 827 829 833 836 839 842 846 848 850 852 855 857 858 861 863 865 867 868 869 870 871 872 873 874 875
783 776 775 769 771 772 772 769 769 763 760 757 764 768 774 782 788 794 801 806 811 816 820 822 825 827 832 836 838 841 844 847 850 852 853 856 858 860 862 864 865 866 868 869 870 871 872 873 873
779 774 769 768 767 770 769 769 770 763 755 758 764 775 775 781 788 796 802 807 811 814 819 822 825 827 833 835 838 841 843 846 849 851 853 855 857 859 860 862 864 865 867 868 869 870 870 871 872
767 767 766 765 766 768 769 764 767 761 758 762 765 771 776 780 789 797 802 805 809 814 818 821 824 827 831 834 837 840 843 845 847 850 852 854 856 857 859 861 862 864 865 866 867 868 869 870 870
762 772 768 764 763 765 762 770 765 759 760 764 769 775 778 784 791 795 800 804 808 813 818 821 823 826 830 833 836 839 843 845 847 850 851 852 854 856 858 859 860 862 863 865 866 866 866 866 867
770 771 775 753 759 758 759 768 763 757 760 766 771 775 778 785 790 796 800 804 808 812 815 820 822 824 828 831 835 838 841 844 846 848 850 852 853 855 856 858 859 861 862 863 864 865 865 865 865
772 776 773 761 757 759 762 763 765 761 762 768 771 775 782 789 795 798 800 802 805 809 813 816 820 823 826 831 834 836 839 841 843 845 848 850 852 854 855 856 858 858 860 861 862 863 863 863 864
771 771 766 762 761 758 763 768 767 764 765 771 775 779 785 790 797 799 799 801 803 807 810 812 816 820 825 829 833 835 836 838 840 843 845 847 850 852 852 854 855 857 859 859 859 860 861 861 862
758 761 763 758 755 757 758 771 775 773 771 775 779 784 789 794 798 800 800 799 801 804 807 810 813 817 822 827 830 833 834 836 837 839 841 844 846 848 849 852 853 853 854 856 857 858 858 860 860
758 761 759 762 762 758 768 779 782 778 776 776 782 785 789 795 798 800 800 799 800 802 804 808 811 814 818 823 827 830 831 832 835 836 837 841 844 845 845 847 848 848 847 849 851 854 857 855 857
755 757 758 759 766 767 769 783 783 784 784 784 786 787 791 794 797 799 800 801 801 803 804 806 809 811 815 819 824 827 829 831 832 835 837 839 840 840 842 840 843 844 844 845 846 850 849 850 854
757 743 749 758 763 774 768 780 785 782 784 785 786 788 790 794 797 799 800 801 802 804 804 805 807 810 812 815 820 823 826 828 831 832 834 836 837 838 838 840 841 842 842 843 845 845 846 846 847
746 742 748 753 761 761 770 768 770 782 781 778 779 783 785 789 795 798 800 802 804 804 805 806 807 809 811 813 815 818 821 824 828 831 833 835 836 836 837 839 841 841 842 842 843 844 844 844 844
744 749 756 761 758 768 774 770 773 774 763 763 771 778 781 788 794 797 800 804 805 806 807 806 807 808 810 812 814 817 819 822 826 828 831 833 835 835 836 838 839 840 841 841 841 841 841 841 841
741 749 767 774 770 773 782 774 757 754 754 753 759 770 779 787 793 797 801 803 805 807 809 809 809 810 811 812 814 816 819 822 825 829 830 833 834 834 836 837 838 839 840 840 840 839 839 838 837
747 747 756 782 778 774 783 775 756 759 760 761 761 765 775 784 791 798 802 804 806 808 809 810 812 812 813 815 815 817 820 822 826 829 831 831 833 834 836 836 838 839 839 838 838 838 838 837 836
749 753 758 772 792 775 776 770 761 760 759 763 764 768 773 781 788 795 799 802 806 808 811 812 813 814 815 815 816 818 821 823 824 827 829 830 832 833 835 836 836 837 838 837 837 838 837 836 835
732 746 760 760 786 789 780 780 759 758 756 764 767 767 771 779 785 791 797 802 806 809 812 813 814 816 816 818 817 819 821 822 824 826 828 829 831 833 834 835 835 836 837 836 835 835 836 836 835
749 749 764 764 771 770 779 771 771 765 763 760 760 766 770 775 781 788 792 797 803 807 810 812 814 816 817 817 818 818 821 822 824 826 828 830 831 832 834 834 835 835 836 836 836 836 835 835 835
741 741 743 753 779 784 773 767 778 776 772 768 764 766 768 773 781 787 792 797 801 805 807 810 813 815 817 818 818 819 820 822 823 825 827 829 830 831 832 833 834 835 835 835 835 834 833 834 834